Location: Newark
(49.5042°N, 20.1881°E)
Time: 15:09:06
(UTC+00:00)

ISS - Visible Passes

Search period start: 30 September 2020 00:00
Search period end: 10 October 2020 00:00
Orbit: 419 x 421 km, 51.6° (Epoch: 01 October)

Date Brightness Start Highest point End Pass type
(mag) Time Alt. Az. Time Alt. Az. Time Alt. Az.
30 Sep -3.7 18:17:51 10° WNW 18:21:09 67° SSW 18:21:09 67° SSW visible
01 Oct -3.8 17:30:32 10° WNW 17:33:56 89° S 17:35:42 26° ESE visible
01 Oct -0.9 19:07:43 10° W 19:08:40 15° W 19:08:40 15° W visible
02 Oct -3.7 16:43:14 10° WNW 16:46:37 75° NNE 16:50:00 10° E visible
02 Oct -2.5 18:20:12 10° W 18:23:16 33° SW 18:23:16 33° SW visible
03 Oct -3.0 17:32:47 10° WNW 17:36:04 47° SSW 17:37:54 22° SE visible
04 Oct -3.5 16:45:26 10° WNW 16:48:47 67° SSW 16:52:08 10° ESE visible
04 Oct -1.3 18:23:03 10° W 18:25:08 15° SW 18:25:36 15° SSW visible
05 Oct -1.7 17:35:16 10° W 17:37:59 23° SW 17:40:25 11° SSE visible
06 Oct -2.2 16:47:42 10° W 16:50:47 33° SSW 16:53:50 10° SSE visible
08 Oct -0.9 16:50:29 10° W 16:52:33 15° SW 16:54:36 10° S visible
